Location: *
(48.4333°N, 5.0333°W)
Time: 14:20:58
(UTC+00:00)

SJ-6B - Pass Details

Date: 18 August 2020
Orbit: 509 x 581 km, 97.6° (Epoch: 23 September)

Event Time Altitude Azimuth Distance (km) Brightness Sun altitude
Rises 20:38:57 0° 187° (S) 2,739 6.1 -11.2°
Reaches altitude 10° 20:41:15 10° 197° (SSW) 1,837 5.3 -11.6°
Maximum altitude 20:44:52 34° 263° (W) 927 4.5 -12.0°
Drops below altitude 10° 20:48:27 10° 329° (NNW) 1,812 6.6 -12.5°
Sets 20:50:42 0° 339° (NNW) 2,696 7.4 -12.8°
